[[{"header":{"parameterUnit":"m.s-1","parameterCategory":1,"la1":30.2992,"la2":30.254,"lo1":-89.0895,"lo2":-89.0443,"dy":0.0025,"dx":0.0025,"nx":19,"ny":19,"refTime":"2026-05-02T09:00:00:Z","depth":0,"parameterNumber":2,"parameterNumberName":"U-component_of_WINDS"},"data":[0,0,0,0.0598,0.0598,0.0641,0.0641,0.0675,0.0675,0,0,0,0,0,0,0,0,0,0,0,0.0573,0.0573,0.0597,0.0598,0.0641,0.0641,0.0675,0.0675,0,0,0,0,0,0,0,0,0,0,0,0.0573,0.0573,0.0573,0.0598,0.0641,0.0641,0.0675,0.065,0,0,0,0,0,0,0,0,0,0,0.0612,0.0578,0.0573,0.0573,0.0598,0.0641,0.0641,0.0649,0.0652,0.0647,0,0.0641,0,0.0659,0.0676,0.0676,0,0,0,0.0607,0.0576,0.0598,0.0573,0.0599,0.064,0.0624,0.0651,0.0654,0.065,0.0642,0.0643,0.0659,0.0676,0.0677,0.0623,0.0623,0,0,0.0605,0.0574,0.0596,0.0599,0.0592,0.0623,0.0625,0.0653,0.0641,0.0642,0.0645,0.066,0.0677,0.0677,0.0624,0.0623,0,0,0,0.0592,0.0572,0.0594,0.0598,0.0607,0.0624,0.0627,0.064,0.0649,0.0645,0.066,0.0677,0.0677,0.0625,0.0624,0.056,0,0,0,0.0591,0.0565,0.0593,0.0575,0.0606,0.0624,0.0612,0.0647,0.0652,0.066,0.0677,0.0677,0.0625,0.0624,0.0564,0.0535,0,0,0,0.0574,0.0563,0.0565,0.0573,0.059,0.0624,0.0636,0.0649,0.066,0.0676,0.0677,0.0626,0.0624,0.0567,0.054,0.0511,0,0,0,0.0548,0.0509,0.0564,0.0527,0.059,0.0585,0.0636,0.0634,0.0641,0.0677,0.0625,0.0624,0.0568,0.0543,0.0514,0.0479,0.0462,0,0,0.0482,0.05,0.0481,0.0531,0.0509,0.0581,0.055,0.0585,0.0615,0.0619,0.0618,0.0563,0.054,0.0511,0.0383,0.0369,0,0,0,0.045,0.0435,0.0436,0.0441,0.0466,0.0486,0.0529,0.0542,0.0546,0.0611,0.0546,0.0534,0.0518,0.0503,0.0491,0.0479,0.0616,0.0616,0.0616,0.0311,0.0352,0.0322,0.0366,0.037,0.0415,0.0422,0.0447,0.0486,0.047,0.0471,0.0388,0.0369,0.036,0.0347,0.0458,0.0457,0.0457,0.0457,0.0217,0.0202,0.0256,0.0245,0.0287,0.0279,0.0321,0.0349,0.0347,0.0391,0.0379,0.0421,0.0344,0.0334,0.0453,0.0453,0.0454,0.0454,0.0455,0.0129,0.0129,0.0146,0.0157,0.016,0.0208,0.0203,0.0243,0.0279,0.0268,0.0272,0.0273,0.0277,0.0267,0.0267,0.0267,0.0267,0.0266,0.0266,0.0031,0.0052,0.0043,0.0067,0.0075,0.0091,0.0136,0.0144,0.0164,0.0193,0.0193,0.0232,0.0331,0.0353,0.0262,0.0263,0.0263,0.0264,0.0264,-0.0084,-0.0052,-0.0065,-0.0057,-0.0026,-0.0026,0.0026,0.004,0.0053,0.0049,0.0092,0.0159,0.018,0.0189,0.0208,0.0085,0.0085,0.0085,0.0085,-0.016,-0.0145,-0.015,-0.014,-0.0126,-0.0081,-0.0099,-0.0065,-0.0024,-0.0014,0.001,0.0039,0.0047,0.0064,0.0076,0.0094,-0.0056,-0.0056,-0.0056,-0.0229,-0.0211,-0.0234,-0.0193,-0.0165,-0.0143,-0.0159,-0.015,-0.0097,-0.0061,-0.0005,0.0,0.0048,0.0062,0.0096,0.0114,0.0148,0,0]},{"header":{"parameterUnit":"m.s-1","parameterCategory":1,"la1":30.2992,"la2":30.254,"lo1":-89.0895,"lo2":-89.0443,"dy":0.0025,"dx":0.0025,"nx":19,"ny":19,"refTime":"2026-05-02T09:00:00:Z","depth":0,"parameterNumber":3,"parameterNumberName":"V-component_of_WINDS"},"data":[0,0,0,-1.4519,-1.452,-1.4559,-1.4559,-1.4605,-1.4606,0,0,0,0,0,0,0,0,0,0,0,-1.4505,-1.4505,-1.4519,-1.452,-1.4559,-1.4559,-1.4605,-1.4606,0,0,0,0,0,0,0,0,0,0,0,-1.4505,-1.4505,-1.4505,-1.452,-1.4559,-1.4559,-1.4605,-1.4577,0,0,0,0,0,0,0,0,0,0,-1.454,-1.4524,-1.4505,-1.4505,-1.452,-1.4559,-1.4559,-1.4576,-1.4579,-1.4586,0,-1.4591,0,-1.4599,-1.4609,-1.4609,0,0,0,-1.4522,-1.4521,-1.4534,-1.4505,-1.4521,-1.4558,-1.4542,-1.4578,-1.4581,-1.459,-1.4592,-1.4594,-1.46,-1.4609,-1.4609,-1.4644,-1.4644,0,0,-1.452,-1.451,-1.4532,-1.4536,-1.4529,-1.454,-1.4543,-1.458,-1.4581,-1.4592,-1.4595,-1.4601,-1.4609,-1.4609,-1.4644,-1.4644,0,0,0,-1.4512,-1.4508,-1.4521,-1.4534,-1.4542,-1.4542,-1.4544,-1.4579,-1.4584,-1.4595,-1.4601,-1.4609,-1.461,-1.4644,-1.4644,-1.4638,0,0,0,-1.4511,-1.4504,-1.452,-1.4514,-1.4541,-1.4561,-1.4543,-1.4582,-1.4586,-1.4601,-1.4609,-1.461,-1.4644,-1.4644,-1.4638,-1.4637,0,0,0,-1.4503,-1.4503,-1.4508,-1.4513,-1.453,-1.456,-1.4567,-1.4583,-1.459,-1.4609,-1.461,-1.4644,-1.4644,-1.4638,-1.4637,-1.4645,0,0,0,-1.4492,-1.4501,-1.4507,-1.452,-1.4529,-1.4556,-1.4567,-1.4588,-1.4603,-1.461,-1.4644,-1.4644,-1.4638,-1.4637,-1.4645,-1.465,-1.4651,0,0,-1.4498,-1.4501,-1.451,-1.4517,-1.454,-1.4551,-1.4574,-1.4597,-1.4608,-1.4631,-1.4632,-1.4638,-1.4637,-1.4645,-1.4659,-1.466,0,0,0,-1.4508,-1.4514,-1.4523,-1.4537,-1.4556,-1.4573,-1.4594,-1.4603,-1.4624,-1.4618,-1.4643,-1.4643,-1.4648,-1.4651,-1.4651,-1.4657,-1.4644,-1.4644,-1.4644,-1.4502,-1.4517,-1.4532,-1.4552,-1.4566,-1.4589,-1.4603,-1.462,-1.4628,-1.4634,-1.4641,-1.4648,-1.4651,-1.4652,-1.4658,-1.4645,-1.4645,-1.4645,-1.4645,-1.4513,-1.4525,-1.4539,-1.4559,-1.4575,-1.4593,-1.4616,-1.4623,-1.4642,-1.4643,-1.4648,-1.4649,-1.4652,-1.4658,-1.4644,-1.4644,-1.4644,-1.4644,-1.4644,-1.4512,-1.452,-1.4532,-1.4557,-1.4575,-1.4595,-1.4614,-1.4627,-1.4639,-1.4644,-1.4655,-1.4655,-1.4658,-1.4648,-1.4648,-1.4648,-1.4648,-1.4648,-1.4648,-1.4505,-1.4519,-1.4533,-1.4556,-1.4569,-1.4588,-1.4613,-1.4626,-1.4645,-1.4653,-1.4653,-1.4663,-1.4649,-1.4647,-1.4649,-1.4649,-1.4649,-1.4649,-1.4649,-1.4513,-1.4514,-1.4536,-1.4549,-1.4579,-1.4597,-1.4614,-1.4641,-1.4654,-1.4664,-1.4673,-1.4661,-1.4665,-1.4665,-1.4662,-1.4669,-1.4669,-1.4669,-1.4669,-1.4512,-1.4516,-1.4543,-1.4564,-1.4586,-1.4604,-1.4631,-1.4652,-1.4674,-1.4684,-1.4685,-1.4683,-1.4681,-1.4687,-1.4686,-1.4684,-1.4696,-1.4696,-1.4696,-1.4518,-1.4526,-1.4545,-1.4567,-1.4592,-1.4613,-1.464,-1.4664,-1.4689,-1.4697,-1.4692,-1.4691,-1.4688,-1.4686,-1.4693,-1.4691,-1.4689,0,0]}]]